This demonstration page uses our WeatherBlox Daily Observations layout. Learn more.

Hourly Observations for December 29, 2019

Temp ( °F °C ) Dew Point ( °F °C ) Humidity (%) Winds ( mph kmh ) Pressure ( in mb ) Visibility ( mi km ) Precip ( " mm )
12:15 am 00:15 Clear 43 6 41 5 93 93 Calm 30.23 1024 10 16.0934 0 0
12:35 am 00:35 Clear 43 6 41 5 93 93 NNE 3 6 30.22 1023 10 16.0934 0 0
12:55 am 00:55 Clear 43 6 41 5 93 93 Calm 30.22 1023 10 16.0934 0 0
1:15 am 01:15 Clear 43 6 41 5 93 93 Calm 30.22 1023 10 16.0934 0 0
1:35 am 01:35 Clear 43 6 41 5 93 93 Calm 30.22 1023 10 16.0934 0 0
1:55 am 01:55 Clear 43 6 41 5 93 93 Calm 30.22 1023 7 11.26538 0 0
2:15 am 02:15 Clear 43 6 41 5 93 93 Calm 30.22 1023 7 11.26538 0 0
2:35 am 02:35 Partly Cloudy 43 6 41 5 93 93 Calm 30.22 1023 7 11.26538 0 0
2:55 am 02:55 Clear 41 5 39 4 93 93 Calm 30.22 1023 7 11.26538 0 0
3:15 am 03:15 Clear 41 5 41 5 100 100 Calm 30.21 1023 7 11.26538 0 0
3:35 am 03:35 Clear 41 5 41 5 100 100 ENE 5 7 30.21 1023 7 11.26538 0 0
3:55 am 03:55 Clear 41 5 37 3 87 87 Calm 30.2 1023 7 11.26538 0 0
4:15 am 04:15 Mostly Cloudy 39 4 37 3 93 93 Calm 30.22 1023 7 11.26538 0 0
4:35 am 04:35 Cloudy 41 5 39 4 93 93 Calm 30.21 1023 7 11.26538 0 0
4:55 am 04:55 Mostly Cloudy 41 5 39 4 93 93 E 5 7 30.19 1022 7 11.26538 0 0
5:15 am 05:15 Partly Cloudy 41 5 39 4 93 93 Calm 30.19 1022 7 11.26538 0 0
5:35 am 05:35 Partly Cloudy 37 3 37 3 100 100 N 3 6 30.2 1023 5 8.0467 0 0
5:55 am 05:55 Mostly Cloudy 41 5 39 4 93 93 Calm 30.19 1022 5 8.0467 0 0
6:15 am 06:15 Cloudy 41 5 39 4 93 93 Calm 30.19 1022 5 8.0467 0 0
6:35 am 06:35 Cloudy 41 5 39 4 93 93 Calm 30.19 1022 7 11.26538 0 0
6:55 am 06:55 Cloudy 41 5 41 5 100 100 Calm 30.19 1022 7 11.26538 0 0
7:15 am 07:15 Cloudy 41 5 41 5 100 100 Calm 30.19 1022 7 11.26538 0 0
7:35 am 07:35 Cloudy 43 6 41 5 93 93 Calm 30.19 1022 7 11.26538 0 0
7:55 am 07:55 Cloudy 43 6 41 5 93 93 ENE 3 6 30.19 1022 5 8.0467 0 0
8:15 am 08:15 Cloudy 43 6 41 5 93 93 ENE 3 6 30.18 1022 5 8.0467 0 0
8:35 am 08:35 Cloudy 43 6 41 5 93 93 Calm 30.18 1022 5 8.0467 0 0
8:55 am 08:55 Cloudy 43 6 43 6 100 100 Calm 30.19 1022 5 8.0467 0 0
9:15 am 09:15 Cloudy 45 7 43 6 93 93 Calm 30.19 1022 5 8.0467 0 0
9:55 am 09:55 Cloudy 45 7 43 6 93 93 Calm 30.19 1022 3 4.82802 0 0
10:15 am 10:15 Cloudy 45 7 43 6 93 93 Calm 30.19 1022 3 4.82802 0 0
10:35 am 10:35 Cloudy 45 7 45 7 100 100 Calm 30.18 1022 2.5 4.02335 0 0
10:55 am 10:55 Cloudy 45 7 45 7 100 100 Calm 30.16 1021 1.5 2.41401 0 0
11:15 am 11:15 Cloudy 45 7 45 7 100 100 Calm 30.15 1021 1 1.60934 0 0
11:35 am 11:35 Cloudy 43 6 43 6 100 100 Calm 30.13 1020 1 1.60934 0 0
11:55 am 11:55 Cloudy 45 7 45 7 100 100 Calm 30.11 1020 0.75 1.207005 0 0
12:15 pm 12:15 Cloudy 45 7 45 7 100 100 Calm 30.1 1019 0.75 1.207005 0 0
12:35 pm 12:35 Cloudy 45 7 45 7 100 100 Calm 30.09 1019 0.75 1.207005 0 0
12:55 pm 12:55 Cloudy 45 7 45 7 100 100 Calm 30.08 1019 0.75 1.207005 0 0
1:15 pm 13:15 Cloudy 45 7 45 7 100 100 Calm 30.07 1018 0.75 1.207005 0 0
1:35 pm 13:35 Cloudy 46 8 46 8 100 100 Calm 30.06 1018 1.5 2.41401 0 0
1:55 pm 13:55 Cloudy 46 8 46 8 100 100 SSE 3 6 30.05 1018 1.75 2.816345 0 0
2:15 pm 14:15 Cloudy 46 8 46 8 100 100 Calm 30.05 1018 1 1.60934 0 0
2:35 pm 14:35 Cloudy 46 8 46 8 100 100 SE 3 6 30.03 1017 1.25 2.011675 0 0
2:55 pm 14:55 Cloudy 46 8 46 8 100 100 Calm 30.04 1017 1 1.60934 0 0
3:15 pm 15:15 Cloudy 46 8 46 8 100 100 Calm 30.03 1017 1.75 2.816345 0 0
3:35 pm 15:35 Cloudy 46 8 46 8 100 100 Calm 30.03 1017 2 3.21868 0 0
3:55 pm 15:55 Cloudy 46 8 46 8 100 100 Calm 30.03 1017 1 1.60934 0 0
4:15 pm 16:15 Cloudy 45 7 45 7 100 100 Calm 30.02 1017 0.5 0.80467 0 0
4:35 pm 16:35 Cloudy 45 7 45 7 100 100 Calm 30.02 1017 0.5 0.80467 0 0
4:55 pm 16:55 Cloudy 45 7 45 7 100 100 Calm 30.01 1016 1.25 2.011675 0 0
5:15 pm 17:15 Cloudy 45 7 45 7 100 100 Calm 30.01 1016 1.5 2.41401 0 0
5:35 pm 17:35 Cloudy 45 7 45 7 100 100 Calm 30.01 1016 1.5 2.41401 0 0
5:55 pm 17:55 Cloudy 45 7 45 7 100 100 Calm 30 1016 1.25 2.011675 0 0
6:15 pm 18:15 Cloudy 45 7 45 7 100 100 Calm 29.99 1016 2 3.21868 0 0
6:35 pm 18:35 Cloudy 45 7 45 7 100 100 Calm 29.99 1016 2 3.21868 0 0
6:55 pm 18:55 Cloudy 45 7 45 7 100 100 SSE 3 6 29.98 1015 1.25 2.011675 0 0
7:15 pm 19:15 Cloudy 46 8 46 8 100 100 Calm 29.96 1015 0.75 1.207005 0 0
7:35 pm 19:35 Cloudy 45 7 45 7 100 100 Calm 29.96 1015 0.5 0.80467 0 0
7:55 pm 19:55 Cloudy 46 8 46 8 100 100 ENE 3 6 29.95 1014 0.5 0.80467 0 0
8:15 pm 20:15 Cloudy 45 7 45 7 100 100 Calm 29.93 1014 0.5 0.80467 0 0
8:35 pm 20:35 Cloudy 45 7 45 7 100 100 ENE 3 6 29.93 1014 0.5 0.80467 0 0
8:55 pm 20:55 Cloudy 45 7 45 7 100 100 E 3 6 29.93 1014 0.5 0.80467 0 0
9:15 pm 21:15 Cloudy 45 7 45 7 100 100 ENE 5 7 29.91 1013 0.5 0.80467 0 0
9:35 pm 21:35 Cloudy 45 7 45 7 100 100 ENE 6 9 29.9 1013 0.5 0.80467 0 0
9:55 pm 21:55 Cloudy 45 7 45 7 100 100 NE 5 7 29.89 1012 1 1.60934 0 0
10:15 pm 22:15 Cloudy 45 7 45 7 100 100 NE 3 6 29.89 1012 1.75 2.816345 0 0
10:35 pm 22:35 Cloudy 45 7 45 7 100 100 ENE 6 9 29.88 1012 1.5 2.41401 0 0
10:55 pm 22:55 Cloudy 45 7 45 7 100 100 Calm 29.87 1012 1 1.60934 0 0
11:15 pm 23:15 Cloudy 45 7 45 7 100 100 Calm 29.86 1011 1 1.60934 0 0
11:35 pm 23:35 Cloudy 45 7 45 7 100 100 Calm 29.85 1011 1.25 2.011675 0 0
11:55 pm 23:55 Cloudy 43 6 43 6 100 100 NNE 5 7 29.83 1010 1 1.60934 0 0

Powered by AerisWeather